Location: Stara Lesna
(49.1528°N, 20.2911°E)
Time: 17:54:55
(UTC+02:00)

Cosmos 1954 Rocket - Pass Details

Date: 13 July 2020
Orbit: 751 x 782 km, 74.0° (Epoch: 10 August)

Event Time Altitude Azimuth Distance (km) Brightness Sun altitude
Exits shadow 03:04:39 15° 189° (S) 1,987 5.6 -12.5°
Maximum altitude 03:09:00 68° 109° (ESE) 836 4.2 -12.1°
Drops below altitude 10° 03:14:17 10° 28° (NNE) 2,341 8.0 -11.6°
Sets 03:16:42 0° 26° (NNE) 3,277 9.2 -11.4°
